This demonstration page uses our WeatherBlox Daily Observations layout. Learn more.

Left ArrowRight Arrow

34.02893, -84.19858

Hourly Observations for March 3, 2022

Temp ( °F °C ) Dew Point ( °F °C ) Humidity (%) Winds ( mph kmh ) Pressure ( in mb ) Visibility ( mi km ) Precip ( " mm )
12:53 am 00:53 Clear 49 9.4 36 2.2 61 61 Calm 30.11 1020 10 16 0.00 0.00
1:53 am 01:53 Clear 46 7.8 36 2.2 68 68 Calm 30.12 1020 10 16 0.00 0.00
2:53 am 02:53 Clear 48 8.9 35 1.7 61 61 Calm 30.11 1020 10 16 0.00 0.00
3:53 am 03:53 Clear 45 7.2 35 1.7 68 68 Calm 30.11 1020 10 16 0.00 0.00
4:53 am 04:53 Clear 45 7.2 36 2.2 71 71 Calm 30.12 1020 10 16 0.00 0.00
5:53 am 05:53 Clear 43 6.1 36 2.2 76 76 Calm 30.14 1021 10 16 0.00 0.00
6:53 am 06:53 Clear 40 4.4 35 1.7 83 83 Calm 30.16 1021 10 16 0.00 0.00
7:53 am 07:53 Sunny 47 8.3 40 4.4 77 77 S 5 7 30.17 1022 10 16 0.00 0.00
8:53 am 08:53 Sunny 58 14.4 39 3.9 50 50 SW 3 6 30.19 1022 10 16 0.00 0.00
9:53 am 09:53 Sunny 63 17.2 37 2.8 38 38 WSW 6 9 30.18 1022 10 16 0.00 0.00
10:53 am 10:53 Sunny 69 20.6 34 1.1 27 27 NW 10 17 30.18 1022 10 16 0.00 0.00
11:53 am 11:53 Sunny 72 22.2 32 0 23 23 WNW 12 19 30.17 1022 10 16 0.00 0.00
12:53 pm 12:53 Sunny 75 23.9 32 0 21 21 VRB 7 11 30.16 1021 10 16 0.00 0.00
1:53 pm 13:53 Sunny 75 23.9 31 -0.6 20 20 W 9 15 30.13 1020 10 16 0.00 0.00
2:53 pm 14:53 Sunny 78 25.6 30 -1.1 17 17 NW 8 13 30.11 1020 10 16 0.00 0.00
3:53 pm 15:53 Sunny 77 25 27 -2.8 16 16 WSW 9 15 30.10 1019 10 16 0.00 0.00
4:53 pm 16:53 Sunny 77 25 25 -3.9 14 14 WNW 6 9 30.09 1019 10 16 0.00 0.00
5:53 pm 17:53 Sunny 75 23.9 28 -2.2 18 18 WNW 6 9 30.11 1020 10 16 0.00 0.00
6:53 pm 18:53 Clear 70 21.1 23 -5 17 17 WNW 5 7 30.13 1020 10 16 0.00 0.00
7:53 pm 19:53 Clear 63 17.2 27 -2.8 26 26 NW 3 6 30.15 1021 10 16 0.00 0.00
8:53 pm 20:53 Clear 58 14.4 29 -1.7 33 33 Calm 30.16 1021 10 16 0.00 0.00
9:53 pm 21:53 Clear 56 13.3 33 0.6 42 42 Calm 30.16 1021 10 16 0.00 0.00
10:53 pm 22:53 Clear 54 12.2 30 -1.1 40 40 Calm 30.16 1022 10 16 0.00 0.00
11:53 pm 23:53 Clear 50 10 32 0 50 50 Calm 30.18 1022 10 16 0.00 0.00

Powered by AerisWeather